Regional Weather Roundup
Issued by NWS

Home | Current Version | Previous Version | Text Only | Print | Product List | Glossary On
Versions: 1 2 3 4 5 6 7 8 9 10 11 12 13 14 15 16 17 18 19 20 21 22 23 24 25 26 27 28 29 30 31 32 33 34 35 36 37 38 39 40 41 42 43 44 45 46 47 48 49 50
210
ASUS43 KLSX 232110
RWRMO

WEATHER SUMMARY FOR MISSOURI
NATIONAL WEATHER SERVICE SPRINGFIELD MO
400 PM CDT FRI JUN 23 2017

NOTE: "FAIR" INDICATES FEW OR NO CLOUDS BELOW 12,000 FEET WITH NO
       SIGNIFICANT WEATHER AND/OR OBSTRUCTIONS TO VISIBILITY.
       CURRENT SKY AND/OR WEATHER CONDITIONS ARE NOT AVAILABLE FOR
       CHILLICOTHE AND FARMINGTON.

MOZ001>031-035>038-043-044-053-054-232200-
...NORTHERN AND WESTERN MISSOURI...

CITY           SKY/WX    TMP DP  RH WIND       PRES   REMARKS
KANSAS CTY INT PTSUNNY   77  53  43 N15       29.96S
KANSAS C DTWN  SUNNY     82  50  32 N15G22    29.93S
LEE`S SUMMIT   SUNNY     81  52  36 N12       29.95R
ST JOSEPH      MOSUNNY   79  51  37 NW20G26   29.96S
CHILLICOTHE      N/A     80  54  40 VRB7G17   29.92R
KIRKSVILLE     SUNNY     81  50  33 NW12G21   29.89R

$$
MOZ066>068-077>081-088>096-101>105-232200-
...SOUTHWEST MISSOURI...

CITY           SKY/WX    TMP DP  RH WIND       PRES   REMARKS
SPRINGFIELD    CLOUDY    77  67  71 N15       29.90S
JOPLIN         SUNNY     84  62  47 NE12G18   29.90F
BRANSON        PTSUNNY   68  68 100 NW8       29.90S

$$
MOZ032>034-039>042-045>050-055>058-069>072-232200-
...CENTRAL MISSOURI...

CITY           SKY/WX    TMP DP  RH WIND       PRES   REMARKS
COLUMBIA       PTSUNNY   83  59  44 N16       29.87S
JEFFERSON CITY CLOUDY    83  56  39 N12       29.85S
ROLLA          CLOUDY    73  60  63 NW9       29.87R
SEDALIA        SUNNY     83  58  42 N14G25    29.91R
WHITEMAN AFB   MOSUNNY   83  53  34 CALM      29.89R
WARRENSBURG    SUNNY     81  50  34 NW14G21   29.91R
OSAGE BEACH    CLOUDY    79  60  52 VRB6      29.89S

$$
MOZ051-052-059>065-232200-
...EAST CENTRAL MISSOURI...

CITY           SKY/WX    TMP DP  RH WIND       PRES   REMARKS
ST LOUIS INTL  CLOUDY    83  55  38 N14       29.79R
SPIRIT OF STL  CLOUDY    82  57  42 NW14      29.79R
ST CHARLES     CLOUDY    81  57  43 NW9       29.79R

$$
MOZ072>076-082>087-097>100-106>115-232200-
...SOUTH CENTRAL AND SOUTHEAST MISSOURI...

CITY           SKY/WX    TMP DP  RH WIND       PRES   REMARKS
CAPE GIRARDEAU CLOUDY    87  75  67 NW10      29.72R HX  96
FARMINGTON     CLOUDY    79  69  71 NW8       29.81R
POPLAR BLUFF   MOSUNNY   89  71  55 NW14      29.74R HX  95
WEST PLAINS    RAIN      73  71  93 SE13      29.79F FOG

$$




USA.gov is the U.S. government's official web portal to all federal, state and local government web resources and services.